When you browse on this site, cookies collect data to enhance your experience and personalize the content and advertising you see.
Visit our Privacy Policy to learn more. By continuing to use the site, you agree to this use of cookies and data.
EN

Hourly Weather Subotica

Today, 10 August, Monday

Time Temperature Precipitation Wind Pressure Humidity
00:00 +24°C° 0.1 mm 2 mps 750 mmHg 70%
01:00 +24°C° 0.1 mm 2 mps 750 mmHg 72%
02:00 +23°C° 0 mm 2 mps 750 mmHg 74%
03:00 +23°C° 0 mm 2 mps 751 mmHg 76%
04:00 +21°C° 0 mm 2 mps 751 mmHg 78%
05:00 +24°C° 0 mm 2 mps 751 mmHg 75%
06:00 +25°C° 0 mm 2 mps 751 mmHg 71%
07:00 +26°C° 0 mm 2 mps 751 mmHg 68%
08:00 +28°C° 0 mm 2 mps 751 mmHg 61%
09:00 +29°C° 0 mm 2 mps 751 mmHg 55%
10:00 +31°C° 0 mm 2 mps 752 mmHg 48%
11:00 +32°C° 0 mm 2 mps 751 mmHg 45%
12:00 +34°C° 0 mm 2 mps 751 mmHg 41%
13:00 +35°C° 0 mm 2 mps 750 mmHg 37%
14:00 +35°C° 0 mm 2 mps 750 mmHg 37%
15:00 +35°C° 0 mm 2 mps 750 mmHg 38%
16:00 +34°C° 0 mm 2 mps 750 mmHg 38%
17:00 +32°C° 0 mm 2 mps 750 mmHg 43%
18:00 +30°C° 0 mm 2 mps 750 mmHg 47%
19:00 +28°C° 0 mm 2 mps 750 mmHg 52%
20:00 +28°C° 0 mm 2 mps 750 mmHg 54%
21:00 +27°C° 0 mm 1 mps 750 mmHg 56%
22:00 +26°C° 0 mm 1 mps 751 mmHg 58%
23:00 +25°C° 0 mm 1 mps 751 mmHg 62%

Tomorrow, 11 August, Tuesday

Time Temperature Precipitation Wind Pressure Humidity
00:00 +24°C° 0 mm 2 mps 751 mmHg 66%
01:00 +24°C° 0 mm 2 mps 751 mmHg 69%
02:00 +23°C° 0 mm 2 mps 751 mmHg 72%
03:00 +23°C° 0 mm 2 mps 751 mmHg 75%
04:00 +22°C° 0 mm 1 mps 751 mmHg 78%
05:00 +23°C° 0.2 mm 1 mps 751 mmHg 75%
06:00 +24°C° 0.2 mm 2 mps 751 mmHg 73%
07:00 +25°C° 0.2 mm 2 mps 751 mmHg 70%
08:00 +27°C° 0 mm 1 mps 752 mmHg 63%
09:00 +29°C° 0 mm 1 mps 752 mmHg 57%
10:00 +31°C° 0 mm 1 mps 752 mmHg 51%
11:00 +32°C° 0 mm 1 mps 751 mmHg 47%
12:00 +34°C° 0 mm 2 mps 751 mmHg 44%
13:00 +34°C° 0 mm 2 mps 751 mmHg 40%
14:00 +34°C° 0 mm 2 mps 751 mmHg 40%
15:00 +34°C° 0 mm 2 mps 750 mmHg 41%
16:00 +34°C° 0 mm 2 mps 750 mmHg 41%
17:00 +31°C° 0.4 mm 2 mps 750 mmHg 49%
18:00 +29°C° 0.4 mm 2 mps 750 mmHg 57%
19:00 +26°C° 0.4 mm 2 mps 750 mmHg 66%
20:00 +26°C° 0.4 mm 2 mps 750 mmHg 69%
21:00 +25°C° 0.4 mm 2 mps 751 mmHg 73%
22:00 +24°C° 0.4 mm 2 mps 751 mmHg 76%
23:00 +24°C° 0.1 mm 2 mps 751 mmHg 76%

Day after tomorrow, 12 August, Wednesday

Time Temperature Precipitation Wind Pressure Humidity
00:00 +23°C° 0.1 mm 2 mps 751 mmHg 77%
01:00 +23°C° 0.1 mm 2 mps 751 mmHg 77%
02:00 +21°C° 0 mm 2 mps 751 mmHg 79%
03:00 +21°C° 0 mm 2 mps 751 mmHg 82%
04:00 +20°C° 0 mm 2 mps 751 mmHg 84%
05:00 +21°C° 0 mm 2 mps 751 mmHg 81%
06:00 +23°C° 0 mm 2 mps 751 mmHg 77%
07:00 +24°C° 0 mm 3 mps 751 mmHg 74%
08:00 +25°C° 0 mm 3 mps 752 mmHg 67%
09:00 +27°C° 0 mm 3 mps 752 mmHg 60%
10:00 +28°C° 0 mm 3 mps 752 mmHg 53%
11:00 +29°C° 0 mm 3 mps 752 mmHg 50%
12:00 +30°C° 0 mm 3 mps 752 mmHg 47%
13:00 +30°C° 0 mm 3 mps 751 mmHg 44%
14:00 +31°C° 0 mm 3 mps 751 mmHg 43%
15:00 +31°C° 0 mm 3 mps 751 mmHg 43%
16:00 +32°C° 0 mm 4 mps 751 mmHg 43%
17:00 +29°C° 0 mm 3 mps 751 mmHg 49%
18:00 +28°C° 0 mm 3 mps 751 mmHg 54%
19:00 +26°C° 0 mm 3 mps 751 mmHg 60%
20:00 +26°C° 0 mm 3 mps 752 mmHg 62%
21:00 +25°C° 0 mm 3 mps 752 mmHg 64%
22:00 +24°C° 0 mm 3 mps 752 mmHg 66%
23:00 +22°C° 0 mm 3 mps 752 mmHg 67%

13 August, Thursday

Time Temperature Precipitation Wind Pressure Humidity
00:00 +21°C° 0 mm 3 mps 752 mmHg 68%
01:00 +21°C° 0 mm 3 mps 752 mmHg 69%
02:00 +20°C° 0 mm 3 mps 752 mmHg 72%
03:00 +19°C° 0 mm 3 mps 752 mmHg 74%
04:00 +18°C° 0 mm 3 mps 752 mmHg 76%
05:00 +19°C° 0 mm 3 mps 752 mmHg 73%
06:00 +20°C° 0 mm 3 mps 753 mmHg 70%
07:00 +21°C° 0 mm 3 mps 753 mmHg 67%
08:00 +24°C° 0 mm 3 mps 753 mmHg 59%
09:00 +26°C° 0 mm 3 mps 753 mmHg 52%
10:00 +28°C° 0 mm 2 mps 753 mmHg 44%
11:00 +29°C° 0 mm 3 mps 753 mmHg 42%
12:00 +30°C° 0 mm 3 mps 752 mmHg 41%
13:00 +31°C° 0 mm 3 mps 752 mmHg 40%
14:00 +31°C° 0 mm 3 mps 752 mmHg 39%
15:00 +31°C° 0 mm 3 mps 752 mmHg 39%
16:00 +31°C° 0 mm 2 mps 751 mmHg 39%
17:00 +29°C° 0 mm 2 mps 751 mmHg 44%
18:00 +28°C° 0 mm 2 mps 751 mmHg 49%
19:00 +26°C° 0 mm 2 mps 751 mmHg 53%
20:00 +25°C° 0 mm 2 mps 752 mmHg 54%
21:00 +24°C° 0 mm 2 mps 752 mmHg 54%
22:00 +23°C° 0 mm 2 mps 752 mmHg 54%
23:00 +23°C° 0 mm 2 mps 752 mmHg 55%

14 August, Friday

Time Temperature Precipitation Wind Pressure Humidity
00:00 +23°C° 0 mm 2 mps 752 mmHg 56%
01:00 +22°C° 0 mm 1 mps 752 mmHg 57%
02:00 +21°C° 0 mm 1 mps 752 mmHg 59%
03:00 +21°C° 0 mm 1 mps 752 mmHg 61%
04:00 +20°C° 0 mm 1 mps 751 mmHg 63%
05:00 +21°C° 0 mm 1 mps 752 mmHg 61%
06:00 +21°C° 0 mm 2 mps 752 mmHg 60%
07:00 +24°C° 0 mm 2 mps 752 mmHg 58%
08:00 +25°C° 0 mm 2 mps 752 mmHg 53%
09:00 +27°C° 0 mm 2 mps 752 mmHg 47%
10:00 +29°C° 0 mm 2 mps 752 mmHg 41%
11:00 +30°C° 0 mm 2 mps 752 mmHg 37%
12:00 +31°C° 0 mm 3 mps 751 mmHg 34%
13:00 +33°C° 0 mm 3 mps 751 mmHg 30%
14:00 +33°C° 0 mm 3 mps 750 mmHg 29%
15:00 +33°C° 0 mm 3 mps 750 mmHg 29%
16:00 +33°C° 0 mm 3 mps 750 mmHg 28%
17:00 +30°C° 0 mm 3 mps 750 mmHg 34%
18:00 +28°C° 0 mm 2 mps 750 mmHg 40%
19:00 +26°C° 0 mm 2 mps 750 mmHg 46%
20:00 +25°C° 0 mm 2 mps 750 mmHg 48%
21:00 +25°C° 0 mm 2 mps 750 mmHg 50%
22:00 +24°C° 0 mm 2 mps 750 mmHg 52%
23:00 +24°C° 0 mm 2 mps 750 mmHg 54%

15 August, Saturday

Time Temperature Precipitation Wind Pressure Humidity
00:00 +23°C° 0 mm 2 mps 750 mmHg 56%
01:00 +23°C° 0 mm 2 mps 750 mmHg 58%
02:00 +21°C° 0 mm 2 mps 750 mmHg 60%
03:00 +21°C° 0 mm 2 mps 750 mmHg 62%
04:00 +20°C° 0 mm 2 mps 750 mmHg 64%
05:00 +21°C° 0 mm 2 mps 750 mmHg 62%
06:00 +24°C° 0 mm 2 mps 751 mmHg 59%
07:00 +25°C° 0 mm 2 mps 751 mmHg 57%
08:00 +27°C° 0 mm 2 mps 751 mmHg 52%
09:00 +28°C° 0 mm 2 mps 751 mmHg 47%
10:00 +30°C° 0 mm 2 mps 751 mmHg 42%
11:00 +31°C° 0 mm 2 mps 751 mmHg 39%
12:00 +33°C° 0 mm 1 mps 750 mmHg 36%
13:00 +34°C° 0 mm 1 mps 750 mmHg 33%
14:00 +33°C° 0 mm 1 mps 750 mmHg 35%
15:00 +33°C° 0 mm 1 mps 749 mmHg 36%
16:00 +32°C° 0 mm 1 mps 749 mmHg 37%
17:00 +31°C° 0 mm 1 mps 749 mmHg 40%
18:00 +30°C° 0 mm 1 mps 749 mmHg 43%
19:00 +28°C° 0 mm 2 mps 749 mmHg 46%
20:00 +27°C° 0 mm 1 mps 749 mmHg 48%
21:00 +27°C° 0 mm 1 mps 749 mmHg 50%
22:00 +26°C° 0 mm 1 mps 749 mmHg 52%
23:00 +25°C° 0 mm 1 mps 749 mmHg 53%
Show more